RH
52 58 71 73 74 75 74 74 75 75 76 78 78 78 79 81 82 82 83 82 82 81 80 78 74 74 76 76 73 75 78 79 78 80 82 84 78 72 75 76 78 63 76
55 56 79 73 72 71 72 72 73 74 74 74 76 77 78 78 81 80 81 81 81 83 83 81 83 82 78 79 80 76 77 80 82 83 86 84 85 76 72 76 78 69 76
64 61 71 71 71 69 70 70 71 71 72 73 72 74 76 77 78 78 78 79 79 82 83 84 83 84 82 84 82 81 80 81 84 85 84 62 63 76 74 76 79 73 73
59 59 68 72 69 69 68 68 69 68 69 71 70 72 74 74 74 76 76 77 78 79 78 78 80 82 81 83 83 82 84 87 89 87 69 67 59 71 71 72 71 73 70
58 60 68 72 71 70 68 67 67 67 68 69 68 69 70 74 76 76 76 75 76 76 76 77 77 78 80 81 79 76 82 87 86 74 71 71 64 64 68 69 68 74 72
54 60 70 72 71 69 67 66 66 67 67 66 66 67 68 70 72 74 74 73 74 74 74 73 74 75 76 76 76 71 76 78 73 65 67 73 66 73 68 72 70 68 70
48 57 69 70 70 68 66 65 66 66 66 65 66 67 67 69 70 70 70 70 70 71 70 70 71 71 71 72 72 68 66 66 57 61 64 70 76 76 69 71 72 70 69
48 54 64 69 67 68 66 65 66 66 65 66 66 67 67 69 69 69 68 68 69 68 68 67 68 67 66 68 67 64 58 51 51 57 64 68 78 79 80 78 74 70 71
46 54 57 61 65 68 65 64 65 64 64 65 69 68 67 69 68 67 67 68 68 68 66 64 63 64 62 64 62 59 55 48 42 52 55 64 76 76 79 78 80 79 77
44 49 49 52 57 62 59 63 63 63 62 64 67 69 71 69 65 63 63 65 66 66 65 63 61 59 61 59 58 54 50 45 30 48 53 60 71 74 75 76 78 79 79
40 43 48 52 54 54 55 58 62 62 61 61 58 62 57 47 49 51 60 62 63 64 63 62 59 55 53 56 56 53 42 27 27 39 47 63 68 69 69 69 72 76 79
43 41 44 49 48 46 40 46 44 42 42 40 41 43 45 44 46 48 54 61 62 60 61 60 59 55 41 30 31 39 26 26 27 32 47 61 65 67 67 66 66 70 72
41 39 43 45 44 41 39 41 42 45 44 42 39 41 40 40 42 44 42 43 39 49 37 39 38 35 34 32 30 28 29 28 29 32 51 58 60 61 64 66 65 65 68
45 39 41 42 40 40 44 40 42 43 44 44 42 44 41 45 43 43 43 42 40 38 36 38 37 35 35 34 32 29 30 32 32 32 50 57 57 60 62 64 66 66 66
46 44 42 42 42 42 39 40 41 42 42 44 45 46 44 42 43 43 44 44 44 42 39 37 35 35 35 35 35 33 34 34 35 38 45 64 66 68 70 74 72 67 69
43 45 46 44 43 39 40 40 40 41 42 44 44 46 48 47 45 45 44 44 46 46 44 43 39 37 37 36 36 36 38 37 39 41 42 49 70 68 70 74 74 79 82
42 44 46 47 42 38 39 42 41 42 42 44 43 43 45 47 45 47 47 46 46 47 46 44 44 41 41 38 36 37 39 36 38 37 36 38 45 67 64 69 69 72 73
45 43 42 35 42 40 41 46 42 45 44 45 45 44 44 46 45 46 46 48 49 46 46 47 47 40 41 44 40 45 39 36 35 31 34 39 36 35 56 62 64 66 67
45 43 45 44 42 44 45 48 46 46 45 46 46 45 46 47 48 46 46 50 49 47 49 46 50 46 42 42 37 46 42 41 40 31 35 38 40 40 39 51 58 60 62
45 44 47 45 47 47 52 48 47 47 46 43 45 46 47 49 47 48 47 48 46 46 45 45 45 46 50 50 37 43 42 42 42 42 37 35 37 41 39 41 41 41 59
48 49 45 48 49 51 51 47 45 45 45 46 44 48 44 45 48 47 49 48 47 46 49 47 48 49 48 51 38 42 46 45 39 40 39 40 38 39 39 40 39 42 40
49 47 46 47 50 48 45 43 41 41 42 46 48 46 46 45 48 46 48 48 48 50 51 50 48 48 49 53 46 42 33 43 40 41 40 36 39 37 40 37 37 40 42
49 49 47 49 49 49 45 45 45 45 46 46 45 45 46 46 49 50 50 50 51 51 53 52 49 48 48 53 50 44 35 32 42 43 42 42 40 38 40 41 38 41 42
49 50 49 49 49 47 46 42 39 37 40 41 45 44 45 48 51 51 52 50 50 52 51 51 50 51 48 49 50 47 49 49 41 32 39 42 41 40 40 41 42 42 42
53 50 49 49 48 47 45 41 40 40 41 46 47 46 48 50 50 50 50 50 50 52 51 51 52 51 51 50 51 53 53 51 52 48 41 42 39 41 42 41 41 40 41
53 54 51 49 47 47 44 41 40 40 46 48 48 48 50 52 53 51 52 52 52 53 53 54 53 53 54 53 51 54 52 50 52 52 55 50 53 44 42 41 41 40 42
Wind_Speed
5 4 4 12 11 10 12 14 16 16 15 17 17 19 19 19 19 19 20 20 21 19 19 14 14 15 14 14 15 15 15 15 15 14 12 12 10 13 13 12 10 13 14
5 3 10 13 12 12 12 16 15 15 13 14 16 17 17 18 18 18 18 19 19 20 22 21 23 22 16 14 15 15 15 14 14 13 11 9 9 12 12 11 8 12 13
4 2 4 13 12 11 12 13 14 14 14 13 15 15 17 18 18 18 19 18 19 18 18 18 20 21 21 19 17 16 16 14 14 12 10 6 8 10 11 10 9 10 11
3 1 3 13 13 13 13 12 14 14 15 15 15 16 17 18 18 18 18 19 19 19 19 18 19 19 19 18 18 15 15 16 14 12 9 7 4 7 8 9 9 10 9
4 1 10 15 14 14 14 13 15 15 15 15 14 15 16 18 18 18 19 19 19 19 18 18 18 18 18 18 16 15 14 16 15 11 11 10 5 5 6 7 8 8 7
3 2 13 16 15 14 16 15 16 17 16 14 14 14 15 17 17 18 17 16 19 17 18 16 17 17 17 15 17 15 16 15 15 10 11 13 9 4 5 6 5 7 7
4 4 8 16 17 16 15 16 16 17 16 14 15 15 16 18 18 18 17 18 17 18 17 16 16 18 16 17 16 16 15 15 11 10 12 13 14 11 5 5 3 4 5
6 5 5 14 15 17 15 15 16 16 15 14 15 16 15 18 18 17 17 17 17 18 17 16 18 17 16 17 16 16 15 13 10 11 12 11 15 18 19 13 7 1 3
6 7 6 7 8 16 14 14 16 15 15 15 14 16 17 18 18 17 17 17 17 18 17 17 16 17 16 16 16 15 15 15 10 9 11 9 13 15 17 17 18 14 10
6 6 8 9 8 9 9 14 15 15 14 15 16 16 17 18 17 18 16 17 17 17 17 17 16 14 15 16 17 15 14 14 10 9 9 8 13 15 16 15 15 15 16
6 7 8 10 11 11 11 11 13 16 15 15 14 15 13 9 11 14 17 17 17 18 17 16 15 14 13 15 18 17 14 7 8 7 6 12 12 13 13 14 13 14 15
11 8 8 10 10 12 9 10 10 10 8 8 9 10 9 10 11 11 14 16 18 15 17 16 15 16 11 8 7 12 7 8 7 6 6 13 12 12 12 12 12 13 13
13 9 9 10 10 11 9 8 5 5 6 6 9 9 9 7 7 6 6 6 7 12 7 9 9 8 11 8 7 7 7 7 5 5 9 12 12 11 11 11 12 12 12
15 12 11 10 11 11 8 7 7 6 6 6 7 9 7 5 7 7 6 7 7 6 8 7 6 9 10 10 9 8 8 6 4 4 6 12 12 11 10 11 11 12 12
15 13 13 12 11 10 10 7 7 7 6 7 7 8 7 7 7 7 7 7 7 6 6 6 7 7 8 8 8 8 8 7 7 4 3 15 16 15 15 16 15 11 11
14 14 13 12 11 11 9 10 7 7 8 7 6 7 8 7 7 7 7 7 7 6 6 6 7 7 6 6 7 8 8 7 8 8 6 8 18 15 18 18 18 18 20
15 15 14 13 12 11 11 9 7 7 7 7 7 8 9 8 8 7 6 6 6 5 7 6 6 6 6 5 8 7 7 9 8 9 8 7 8 18 16 18 16 17 18
15 16 15 13 13 13 11 9 7 7 7 6 6 6 9 8 8 7 6 6 5 5 5 6 6 6 6 5 6 6 6 7 10 10 9 8 7 6 10 16 16 17 16
18 18 16 15 15 14 12 9 9 9 7 6 6 6 8 8 7 6 6 5 5 5 6 5 6 6 6 5 5 5 7 7 7 8 10 10 10 9 6 12 16 16 16
16 17 16 13 15 14 10 10 7 7 6 5 5 6 7 6 7 6 5 6 5 5 6 6 7 6 6 5 4 5 5 6 6 6 8 7 9 9 9 9 8 8 16
16 17 17 16 15 11 10 10 7 7 6 5 5 9 8 6 7 6 5 5 5 6 6 6 5 8 8 7 2 4 4 3 6 5 5 6 8 7 8 8 6 6 6
18 18 17 16 16 12 9 6 5 7 4 5 6 6 6 7 7 6 6 5 5 5 5 5 5 3 5 8 4 1 2 3 3 3 3 4 7 6 5 7 8 7 7
18 18 18 17 17 13 12 8 7 6 6 5 6 5 4 6 6 7 7 5 5 5 5 5 5 5 4 4 8 3 0 0 2 1 3 3 5 5 4 6 7 6 6
15 15 16 16 15 13 14 11 16 9 10 6 6 5 5 5 6 7 7 6 5 4 5 5 4 4 2 3 2 4 4 2 1 1 2 1 5 5 6 5 5 5 5
12 14 15 15 14 14 12 11 9 10 5 7 7 9 6 5 6 6 6 5 5 4 4 5 5 4 3 2 2 2 2 1 1 1 3 4 4 4 4 7 4 3 4
12 12 13 16 14 14 12 12 11 12 11 9 8 7 6 5 5 5 6 5 5 4 4 4 4 4 3 1 0 1 1 1 2 1 2 4 7 4 8 5 4 3 3
Wind_Direction
192 217 268 133 111 97 88 83 73 64 64 70 66 62 58 58 59 58 57 61 62 71 71 79 85 81 81 81 83 79 74 71 69 67 57 55 77 88 82 70 76 82 83
154 252 263 127 115 102 87 78 81 80 76 72 77 72 69 64 63 66 64 59 61 58 61 62 66 64 67 77 77 77 76 69 67 60 46 39 53 92 90 86 76 89 84
142 292 303 128 117 112 95 92 91 87 79 76 72 77 74 72 69 66 67 66 66 65 68 59 65 64 57 56 66 72 72 66 63 60 52 49 69 88 91 91 92 100 91
150 237 146 124 120 112 107 105 96 93 88 76 73 73 74 74 74 72 68 70 68 65 62 65 61 62 62 56 49 63 70 68 59 54 56 48 76 93 91 93 97 94 89
147 206 133 124 122 117 113 110 104 96 85 81 75 75 77 76 74 71 67 63 66 64 60 59 64 64 60 59 59 56 65 75 62 58 54 44 76 101 98 88 93 96 92
130 116 138 132 129 126 123 120 114 104 94 87 84 80 79 77 73 71 70 68 67 62 65 60 59 60 61 58 60 61 58 65 73 56 50 41 46 81 114 104 97 99 103
96 52 129 134 134 129 125 125 115 105 105 101 95 84 78 78 70 67 64 63 67 66 62 63 62 58 55 62 57 60 61 60 64 60 52 44 41 60 93 107 102 100 105
101 53 36 135 136 127 129 124 114 107 106 102 98 94 85 81 75 71 68 64 64 65 62 62 61 58 50 57 58 57 57 56 61 59 50 42 43 54 52 52 47 73 127
73 76 60 51 120 127 117 117 111 108 104 100 90 83 82 80 74 68 65 64 62 63 61 60 60 57 53 52 57 57 57 55 61 56 49 37 31 52 52 51 47 50 39
98 94 87 74 70 68 102 109 104 105 100 94 90 85 72 66 70 74 66 61 62 61 59 59 60 58 50 48 51 52 53 53 53 54 47 35 32 44 51 52 45 50 52
129 122 111 103 94 84 75 84 94 106 96 86 84 87 82 78 64 57 66 65 60 58 59 61 61 62 57 46 45 43 49 44 47 45 38 23 32 38 44 51 52 51 48
159 149 130 119 108 101 98 88 80 88 87 85 89 81 73 74 75 71 66 59 63 58 58 57 57 54 52 46 30 37 41 43 44 41 33 24 30 37 41 49 53 54 49
164 158 153 132 123 115 115 111 107 104 105 99 90 86 85 82 75 68 68 63 61 49 43 41 43 48 48 48 45 45 43 45 41 38 21 28 29 36 46 47 51 52 53
168 162 155 143 131 124 123 123 123 117 111 104 97 98 96 88 79 72 68 59 53 45 53 47 46 48 54 51 48 51 51 47 44 44 15 34 43 45 54 56 53 52 54
170 163 162 149 139 135 131 133 131 124 115 112 105 103 105 98 90 86 77 70 57 46 45 51 50 49 47 52 53 47 48 55 56 56 34 46 45 46 47 54 58 70 72
168 163 154 152 145 141 137 139 132 128 119 105 100 99 92 94 94 85 76 69 66 57 51 46 45 48 53 58 55 51 56 59 61 64 59 45 46 48 56 50 44 34 45
170 157 159 151 145 142 137 134 132 133 123 116 114 110 104 96 95 96 91 78 66 64 52 50 56 53 53 55 53 63 68 64 68 67 58 57 46 38 47 47 43 37 37
161 160 157 156 152 144 141 137 134 134 125 120 119 115 109 102 102 93 88 80 75 67 60 51 32 42 52 51 54 64 75 77 78 68 59 58 50 46 36 41 36 35 30
163 158 156 151 150 142 134 131 130 133 127 125 125 119 111 99 93 88 85 78 71 69 64 53 55 36 34 47 74 76 75 65 72 69 69 62 46 44 39 30 33 29 29
162 157 150 149 147 143 134 130 124 127 126 127 123 122 117 110 109 104 93 81 65 57 51 51 49 44 35 27 69 89 99 78 84 77 64 65 47 44 37 29 24 16 23
159 153 154 149 152 143 140 140 138 138 138 132 140 139 134 130 123 114 108 98 83 73 55 42 34 28 32 19 114 103 73 65 68 79 70 64 49 44 35 29 22 12 4
161 159 155 152 153 154 149 144 136 140 134 132 136 136 134 133 128 125 127 120 118 112 93 70 49 54 37 23 28 44 130 145 102 70 57 45 39 24 31 25 13 11 10
167 162 157 156 156 153 143 125 117 105 120 134 147 139 137 134 130 128 127 124 121 118 111 101 79 73 74 54 36 7 60 14 331 117 87 54 27 10 11 3 4 7 10
166 159 154 153 155 155 151 146 156 157 158 160 155 140 134 134 129 128 126 125 120 118 116 118 106 89 105 82 85 41 43 16 338 235 163 66 2 10 358 349 348 358 3
152 155 153 152 154 154 157 158 157 148 139 139 140 141 140 139 133 127 123 122 120 116 111 113 122 112 99 107 97 144 111 62 40 318 312 338 342 349 345 335 328 331 354
148 151 153 155 159 158 159 160 159 150 145 144 149 149 153 150 141 131 124 121 114 110 111 111 114 117 123 135 208 201 207 190 164 169 283 322 321 319 321 313 319 329 335